Helicity
221 138 110 217 206 201 171 129 106 75 86 110 89 51 69 24 50 77 34 -29 -31 -24 20 15 25 4 -4 13 62 72 70 52 23 57 61 69 49 49 51 33 47 52 55
133 240 54 38 217 202 165 137 119 106 64 76 92 82 50 77 63 64 52 22 -29 -45 -41 -18 31 67 48 46 53 44 46 52 40 18 36 55 58 78 83 113 127 114 108
-29 -0 -16 -0 57 191 169 142 135 118 92 77 96 82 78 68 83 78 99 85 61 1 16 21 -4 4 -0 66 60 55 56 46 49 50 39 47 50 75 104 97 100 86 91
79 36 -23 -47 30 163 163 151 126 123 127 121 109 93 90 89 94 121 115 85 77 38 -45 -53 -48 -38 -18 -20 -38 8 39 44 54 54 44 46 50 56 85 81 77 65 43
79 46 7 30 -6 98 100 133 131 136 113 125 131 141 142 146 143 142 147 135 125 107 47 -24 -37 -29 -32 -22 46 -10 31 25 69 71 54 71 71 81 86 77 60 40 35
92 169 106 115 76 76 112 135 159 163 156 134 131 152 167 151 154 182 175 154 131 107 81 52 40 15 -32 -10 1 -5 13 20 15 59 57 38 65 79 86 75 60 66 49
53 97 100 119 68 61 64 132 166 164 171 160 157 161 170 168 165 168 172 146 136 99 74 78 60 48 28 7 -28 -22 -30 2 34 67 54 80 75 91 98 68 69 85 87
12 13 6 34 25 20 35 88 121 95 121 114 141 185 177 157 141 151 150 140 114 103 100 92 82 59 81 68 54 52 -45 18 31 86 95 54 62 62 70 75 68 93 120
-26 5 -3 -12 -19 1 10 9 5 62 157 76 54 186 188 111 116 106 47 122 135 111 106 98 81 79 88 87 87 69 61 57 97 64 40 30 33 33 66 107 109 116 107
23 16 10 -12 -30 -18 -24 -47 -41 -24 4 100 195 131 -9 71 63 71 44 -3 75 139 104 81 75 81 85 80 74 70 65 63 100 104 102 99 99 94 96 117 128 130 137
21 21 40 46 10 -30 -40 -49 -17 39 49 65 113 88 117 97 128 188 44 28 59 57 121 110 103 97 92 67 98 99 80 105 115 110 100 107 116 106 104 100 101 133 135
46 29 24 29 47 30 -21 -37 -14 35 103 113 89 102 129 37 -46 106 124 -7 18 40 29 75 93 119 118 85 114 94 117 138 131 139 136 116 120 112 85 80 65 74 89
44 18 58 44 28 43 78 8 18 71 115 148 144 145 115 82 142 19 -27 69 33 -48 -38 -7 84 129 123 133 122 121 144 155 161 178 136 112 134 113 139 115 83 86 89
59 61 58 31 32 63 89 96 28 81 102 125 144 164 169 131 176 140 93 -94 19 -251 -119 -34 116 142 132 128 121 109 132 161 176 157 150 117 142 165 144 143 129 98 101
89 98 80 72 55 54 87 92 36 108 108 112 119 145 153 146 227 217 279 163 59 -51 -121 77 162 178 160 130 118 141 159 169 141 140 152 151 152 169 167 201 176 134 119
99 98 103 93 80 91 78 96 42 59 117 99 85 86 101 120 288 288 271 -146 -5 136 -54 32 180 132 143 144 139 140 147 129 137 150 150 164 160 154 155 180 179 142 116
122 108 109 93 89 89 80 76 74 92 78 115 126 100 112 138 245 176 141 93 82 186 77 47 193 93 63 121 159 170 121 141 162 157 149 142 147 138 173 161 125 121 85
130 102 119 100 99 113 95 78 102 97 82 95 103 124 83 45 53 74 56 236 179 168 104 192 49 20 33 95 138 125 141 157 135 134 128 134 145 159 162 121 113 108 97
91 108 109 99 94 116 106 110 101 90 78 43 86 126 142 117 112 67 87 212 193 163 173 76 71 -35 95 105 95 114 151 137 127 129 114 136 127 159 138 95 108 106 125
88 56 57 75 86 111 99 93 63 62 38 -26 25 122 215 150 154 145 121 112 117 47 33 -92 8 44 86 89 96 106 137 115 108 112 105 114 130 146 122 109 109 117 107
89 73 58 72 88 106 90 72 67 47 -5 -30 23 142 201 161 75 75 97 53 -79 -28 -98 -40 54 59 67 61 70 99 102 87 76 93 92 82 124 122 109 100 107 96 71
97 67 60 70 95 95 71 76 56 32 10 21 42 100 150 68 45 44 51 43 -46 -53 -47 -6 39 37 41 11 70 97 82 63 74 89 98 89 81 85 120 107 87 82 84
58 36 52 56 65 59 69 69 31 -3 44 66 104 141 130 50 36 39 70 61 67 -32 -31 21 37 57 64 73 83 87 82 65 53 79 115 124 112 93 104 103 94 76 77
1 17 27 43 48 53 61 58 54 28 66 63 95 112 119 86 90 49 35 39 -13 -5 -38 42 84 63 61 54 54 74 90 85 100 105 111 122 128 119 133 119 117 96 76
-7 -1 10 26 22 25 43 81 83 74 101 67 98 90 129 117 15 41 36 34 20 -17 -33 -57 62 45 47 55 68 111 123 180 172 164 148 143 121 113 126 103 87 90 102
13 19 11 18 24 14 10 61 95 99 89 71 41 30 34 65 82 63 35 40 57 38 53 58 14 33 48 60 84 115 126 139 157 150 123 123 133 146 150 182 181 156 183
Wind_Speed
9 5 19 23 21 22 21 24 25 21 22 17 18 19 18 32 33 26 24 39 43 72 68 69 66 65 65 62 44 43 41 36 41 36 33 28 25 25 22 1 3 6 5
24 30 31 43 18 24 24 22 20 24 24 20 17 20 23 19 34 31 26 24 48 62 71 75 71 52 57 58 53 48 43 35 34 43 37 35 31 35 38 32 22 22 21
61 64 74 69 42 23 30 27 19 22 20 23 16 22 26 24 23 29 28 25 29 41 23 19 23 22 17 51 56 48 41 37 34 35 38 36 36 38 36 35 35 36 31
44 65 81 68 44 26 24 25 24 24 20 16 18 18 23 28 25 26 28 25 25 27 68 69 62 46 43 43 63 70 24 41 44 34 22 24 30 28 30 32 35 32 35
44 64 44 41 46 29 25 19 17 20 25 22 20 19 19 19 20 21 21 22 38 42 78 82 81 80 50 43 15 20 12 11 30 31 19 21 25 28 27 33 33 42 48
58 63 63 59 64 53 41 37 29 25 26 21 25 24 23 25 24 22 22 29 35 43 61 75 75 79 79 37 36 33 23 25 24 12 13 14 19 25 30 30 36 42 51
62 65 66 66 68 68 69 61 56 46 36 29 27 26 26 29 28 30 29 45 48 52 56 53 61 67 77 82 71 38 38 37 26 15 18 17 28 35 39 43 38 40 47
75 67 63 63 68 71 71 70 68 75 73 70 48 36 41 40 40 38 39 47 60 64 60 56 52 58 56 55 61 69 51 22 17 21 19 21 25 35 31 34 37 42 45
78 81 74 68 71 74 74 74 72 67 61 69 74 36 42 56 59 54 63 66 66 68 68 62 62 65 64 40 46 38 36 35 38 34 36 37 29 27 25 29 34 34 46
77 80 80 74 71 74 75 74 70 66 61 54 57 49 70 97 95 81 68 73 77 76 74 74 64 64 61 48 36 44 67 60 44 43 42 39 34 31 30 24 31 30 33
79 79 78 80 79 77 74 71 71 69 67 64 63 64 50 34 45 68 70 65 72 77 78 79 73 52 39 35 42 40 45 51 47 45 44 40 38 36 34 30 28 31 32
83 86 86 83 81 80 80 77 75 74 70 67 61 62 60 57 66 56 76 88 80 85 91 84 78 58 46 38 48 46 50 47 44 36 35 39 36 34 27 22 25 29 30
90 94 87 84 83 81 81 82 80 77 76 76 71 64 63 64 63 67 65 69 83 102 103 99 90 68 51 62 51 47 41 40 37 37 36 34 28 26 23 24 30 30 30
87 87 89 91 88 83 78 77 78 77 77 74 74 80 77 71 59 54 54 53 71 89 105 105 84 80 73 62 57 47 37 34 32 31 33 29 33 26 21 19 29 29 30
83 78 80 82 81 77 77 73 73 74 67 65 65 67 70 69 55 41 37 46 61 71 80 80 78 66 62 61 55 45 40 38 34 31 26 26 27 26 25 20 28 27 29
80 73 68 69 72 71 75 77 62 70 73 69 67 62 63 61 29 29 32 48 67 90 75 89 76 68 70 66 65 52 40 34 30 24 24 24 26 28 25 19 25 26 25
74 71 70 70 69 72 74 73 80 74 62 61 61 54 57 50 43 37 36 43 43 34 78 78 61 69 70 59 52 46 30 32 27 23 22 23 30 29 19 16 17 21 26
71 71 72 71 68 68 72 74 74 75 74 74 63 47 49 52 53 54 53 32 48 33 19 65 34 48 45 51 45 37 40 32 26 24 25 26 27 20 16 20 19 21 28
72 69 70 69 66 64 63 69 72 74 74 69 66 53 41 38 35 37 26 21 26 27 26 29 26 33 50 42 34 28 29 35 29 27 27 25 22 16 14 15 22 26 30
71 64 70 67 63 65 64 69 77 74 73 70 71 62 41 30 26 21 11 11 18 23 14 33 33 45 56 26 22 21 24 26 27 26 23 22 18 14 15 20 20 24 32
63 63 65 66 61 60 64 70 73 72 73 71 72 62 32 27 21 12 7 14 17 7 14 58 69 69 49 21 16 21 23 25 23 23 18 15 15 17 15 14 20 28 29
50 66 63 60 52 55 64 67 67 69 72 72 70 66 32 46 59 55 56 52 42 17 14 37 54 61 37 18 17 21 19 17 18 18 13 10 10 9 11 16 22 24 24
52 61 59 60 58 60 63 66 68 68 68 70 68 64 53 66 65 64 61 56 57 4 11 32 45 52 65 55 26 17 14 14 12 10 12 12 13 13 15 18 21 23 23
55 51 53 57 59 59 64 67 68 71 71 71 72 70 66 63 65 71 69 62 55 17 30 37 50 52 49 55 28 17 20 20 15 11 6 8 9 12 17 19 18 18 27
53 53 58 60 61 63 65 66 68 70 72 72 71 71 70 66 68 71 67 66 63 55 39 34 38 54 47 48 29 17 13 12 11 11 11 9 14 16 17 21 20 19 23
47 45 47 52 57 58 57 57 55 63 63 62 63 64 67 67 65 66 65 63 59 52 39 22 12 11 10 9 8 5 9 7 8 10 14 18 17 17 16 17 18 21 23
Wind_Direction
190 248 192 180 182 187 189 188 190 190 187 201 211 211 208 193 192 194 197 191 192 227 251 247 250 246 245 254 287 290 295 310 298 311 313 327 336 339 344 60 271 300 305
297 310 300 212 196 193 200 198 194 193 189 186 199 211 205 205 193 195 203 207 198 207 218 232 253 274 271 272 278 284 290 303 307 298 308 312 320 321 318 322 324 315 315
289 282 265 236 216 210 203 203 214 203 202 193 201 198 197 199 200 200 203 209 205 200 212 222 210 208 220 282 276 282 292 296 304 306 306 310 312 313 318 323 326 325 325
328 269 252 231 219 221 213 205 208 210 222 223 211 209 202 200 208 206 208 218 223 217 212 213 210 202 202 200 221 248 293 295 295 306 310 313 318 324 323 323 323 327 326
324 306 284 232 222 246 242 249 235 221 213 222 243 236 240 233 232 226 237 247 271 271 247 229 227 232 208 205 243 210 247 260 299 302 309 313 315 318 322 323 319 315 313
320 314 304 311 288 282 276 268 253 238 224 236 222 242 251 262 257 234 241 269 270 270 266 259 255 251 229 208 207 205 205 202 205 269 286 229 301 315 319 320 318 316 311
318 314 308 300 297 292 286 276 269 261 260 243 244 248 250 261 264 267 261 274 273 271 268 270 267 266 259 244 223 207 205 208 214 236 229 278 302 306 310 309 313 314 311
306 308 308 304 299 296 294 290 293 278 267 267 267 263 268 271 271 272 274 272 271 269 268 268 271 272 273 272 268 265 212 227 244 287 299 307 310 311 313 314 315 316 315
301 297 299 300 298 296 295 296 294 295 294 281 268 263 282 280 279 282 278 272 269 269 268 269 268 268 269 269 273 274 277 282 290 298 302 307 315 317 317 317 312 319 317
303 297 290 292 294 294 295 296 298 298 298 293 289 298 293 269 262 270 280 277 269 267 267 265 267 267 269 270 266 270 268 274 285 291 297 305 315 320 321 316 313 315 320
303 301 295 288 287 289 291 294 296 294 292 291 290 294 295 255 269 280 274 279 274 269 266 263 264 263 241 242 265 269 274 278 283 287 292 301 308 313 315 316 316 313 314
300 297 293 290 287 285 286 288 290 291 289 289 290 292 288 283 284 287 281 273 274 268 264 264 264 264 253 234 264 267 272 276 282 288 293 298 305 312 314 322 322 317 318
295 290 291 290 287 287 285 284 285 287 287 286 286 288 287 290 293 288 287 287 273 266 262 259 259 262 257 261 261 264 267 272 277 283 290 300 307 307 311 313 313 315 319
299 295 289 285 285 284 285 284 284 284 286 287 286 286 288 289 292 294 296 291 295 281 260 258 258 257 258 259 260 263 264 267 272 281 291 301 304 302 298 302 302 308 315
301 302 296 289 287 288 285 283 283 285 288 288 289 291 290 289 285 293 302 299 294 288 273 258 253 252 252 256 259 258 263 269 273 280 287 293 298 297 291 285 294 305 311
302 300 301 298 293 288 286 283 285 283 283 285 287 293 293 295 266 274 275 293 281 286 267 263 248 246 248 252 256 260 265 264 270 275 280 286 292 291 287 278 291 303 308
297 297 296 295 294 287 284 284 278 281 283 285 289 297 295 297 282 279 296 283 270 294 267 269 252 240 247 250 253 256 252 260 271 270 274 276 285 284 277 274 290 302 303
295 294 293 293 291 287 284 282 279 277 274 276 286 293 296 290 287 282 282 293 286 288 229 260 249 239 242 246 249 248 260 267 266 268 271 271 276 270 262 283 295 300 306
298 294 292 289 286 285 287 283 278 274 271 274 281 292 301 300 292 290 284 277 283 267 251 216 219 207 243 244 241 243 254 263 267 268 270 268 264 258 248 277 299 303 310
297 295 289 286 284 283 282 280 272 270 266 270 275 283 298 306 294 273 243 259 275 282 209 189 238 245 245 236 236 244 259 258 259 263 267 265 263 248 266 288 300 308 312
300 292 286 281 280 280 280 277 269 264 261 263 269 281 302 300 290 276 246 179 181 262 174 185 234 235 247 235 222 250 253 252 257 260 260 255 253 264 276 285 301 310 315
306 283 282 277 279 280 274 273 265 259 255 258 264 270 298 269 248 251 242 196 170 165 148 255 240 235 248 183 230 248 244 241 248 253 242 241 231 247 270 295 308 314 316
304 277 275 271 273 274 269 268 262 257 254 254 257 260 268 241 241 234 234 239 235 227 168 262 255 249 236 245 248 240 227 233 234 240 255 256 248 254 281 294 305 311 316
285 283 278 273 271 270 265 263 256 249 250 249 247 247 246 243 238 227 229 235 196 158 169 260 249 247 248 247 253 251 251 258 253 245 251 250 245 268 287 295 303 310 317
272 276 267 265 264 264 263 258 251 245 245 243 245 245 244 248 234 235 240 235 228 194 168 163 253 242 247 249 254 256 248 215 239 257 272 273 287 290 293 304 308 310 317
296 290 287 274 268 270 269 262 259 247 247 250 250 251 248 248 247 243 242 241 244 248 261 260 180 211 200 223 230 198 159 180 234 264 283 293 297 305 314 319 324 332 334